Погода в Красном Октябре

Россия / Орловская область     52°54′34″N   37°43′54″E
темп.,
°C
ветер,
м/с
пор.,
м/с
влажн.,
%
обл.,
%
осадки,
мм/ч
давл.,
гПа
погр.,
м
24 октября, вс
вс2400:00+4з6127591 0.0 1015630
03:00+5зюз61059100 0.0 1015798
06:00+4зюз6127298 0.0 1015637
09:00+4з71279100 0.0 1016924
12:00+6зсз797490 0.1 1018987
15:00+4зсз71191100 0.4 1019757
18:00+3сз7127214 0.1 1020950
21:00+2ссз611735 0.1 1023772
25 октября, пн
пн2500:000ссз511785 0.0 1025543
03:00−1ссз510855 0.0 1027404
06:00−2сз48915 0.0 1029305
09:000ссз477851 0.0 1031428
12:00+3ссз4552100 0.0 1032814
15:00+3сз44475 0.0 1031859
18:00+1з226034 0.0 103233
21:000зюз35675 0.0 103284
26 октября, вт
вт2600:00−1зюз37710 0.0 1032143
03:00−1зюз497441 0.0 1031202
06:00−1зюз41072100 0.0 1031236
09:00+1юз5116683 0.0 1030301
12:00+5зюз6104985 0.0 1029552
15:00+6юз61150100 0.0 1027627
18:00+3юз5126054 0.0 1027300
21:00+3юз6145839 0.0 1026339
27 октября, ср
ср2700:00+2юз5146276 0.0 1026316
03:00+1юз513655 0.0 1025278
06:00+1юз513665 0.0 1025275
09:00+2юз614590 0.0 1024389
12:00+7юз712440 0.0 1023651
15:00+8юз712420 0.0 1021886
18:00+6юз61452100 0.0 1021573
21:00+6зюз71460100 0.0 1020657
28 октября, чт
чт2800:00+5зюз61280100 0.0 1020509
03:00+5з41084100 0.0 1022415
06:00+5з3784100 0.0 1022220
09:00+6зюз3674100 0.0 1023204
12:00+9зюз566152 0.0 1022856
15:00+9юз6964100 0.0 1021853
18:00+9юз71366100 0.0 1019690
21:00+8зюз71487100 1.3 1018802